Langley AFB, VA

7:51 PM EDT on October 21, 2017 (GMT -0400)
Langley Air Force Base

Weather History for KLFI - January, 2013

Change the Weather History Date:

Tuesday, January 15, 2013

  Actual Average Record
Temperature  
Mean Temperature 44 °F -  
Max Temperature 46 °F 44 °F 77 °F (1937)
Min Temperature 42 °F 31 °F 17 °F (1948)
Degree Days  
Heating Degree Days 21    
Moisture  
Dew Point 44 °F    
Average Humidity 96    
Maximum Humidity 100    
Minimum Humidity 93    
Precipitation  
Precipitation 0.49 in - - ()
Sea Level Pressure  
Sea Level Pressure 30.23 in    
Wind  
Wind Speed 13 mph (NNE)    
Max Wind Speed 21 mph    
Max Gust Speed 25 mph    
Visibility 3 miles    
Events Rain    
Averages and records for this station are not official NWS values.
T = Trace of Precipitation, MM = Missing Value Source: NWS Daily Summary

Daily Weather History Graph

Daily Weather History Graph

Search for Another Location

Airport or City:

Trip Planner

Search our weather history database for the weather conditions in past years. The results will help you decide how hot, cold, wet, or windy it might be!

Date:

Astronomy

Jan. 15, 2013 Rise Set
Actual Time 7:17 AM EST 5:12 PM EST
Civil Twilight 6:49 AM EST 5:40 PM EST
Nautical Twilight 6:17 AM EST 6:12 PM EST
Astronomical Twilight 5:46 AM EST 6:43 PM EST
Moon 9:29 AM EST (1/15) 9:51 PM EST (1/15)
Length of Visible Light 10h 51m
Length of Day
9h 54m
Waxing Crescent, 19% of the Moon is Illuminated
Jan 15
Waxing Crescent
Jan 18
First Quarter
Jan 26
Full
Feb 3
Last Quarter
Feb 10
New

Hourly Weather History & Observations

Time (EST) Temp. Windchill Dew Point Humidity Pressure Visibility Wind Dir Wind Speed Gust Speed Precip Events Conditions
12:02 AM 44.6 °F 38.1 °F 44.6 °F 100% 30.23 in 4.0 mi NNE 13.8 mph - N/A Rain Light Rain
12:04 AM 44.6 °F 38.1 °F 44.6 °F 100% 30.24 in 4.0 mi North 13.8 mph - N/A Rain Light Rain
12:05 AM 44.6 °F 38.1 °F 44.6 °F 100% 30.24 in 4.0 mi North 13.8 mph - N/A Rain Light Rain
12:22 AM 44.6 °F 37.8 °F 44.6 °F 100% 30.24 in 4.0 mi North 15.0 mph - N/A Rain Light Rain
12:23 AM 44.6 °F 37.8 °F 42.8 °F 93% 30.24 in 4.0 mi NNE 15.0 mph - N/A Rain Light Rain
12:28 AM 44.6 °F 37.4 °F 44.6 °F 100% 30.24 in 5.0 mi NNE 16.1 mph 21.9 mph N/A   Overcast
12:32 AM 44.6 °F 36.9 °F 42.8 °F 93% 30.24 in 6.0 mi North 18.4 mph - N/A   Overcast
12:48 AM 44.6 °F 36.9 °F 42.8 °F 93% 30.24 in 6.0 mi NNE 18.4 mph - N/A   Overcast
12:55 AM 44.6 °F 36.9 °F 43.3 °F 95% 30.24 in 6.0 mi NNE 18.4 mph 24.2 mph 0.01 in   Overcast
1:16 AM 44.6 °F 37.2 °F 42.8 °F 93% 30.25 in 5.0 mi North 17.3 mph 23.0 mph N/A   Overcast
1:22 AM 44.6 °F 36.4 °F 42.8 °F 93% 30.25 in 4.0 mi North 20.7 mph - N/A   Overcast
1:32 AM 44.6 °F 36.9 °F 42.8 °F 93% 30.25 in 4.0 mi North 18.4 mph 25.3 mph N/A Rain Light Rain
1:55 AM 43.5 °F 36.1 °F 41.9 °F 94% 30.26 in 4.0 mi North 16.1 mph - 0.00 in Rain Light Rain
2:03 AM 42.8 °F 35.4 °F 41.0 °F 93% 30.26 in 5.0 mi North 15.0 mph - N/A Rain Light Rain
2:11 AM 42.8 °F 35.1 °F 42.8 °F 100% 30.26 in 6.0 mi North 16.1 mph - N/A   Overcast
2:22 AM 42.8 °F 34.8 °F 42.8 °F 100% 30.27 in 6.0 mi North 17.3 mph - N/A Rain Light Rain
2:30 AM 42.8 °F 34.8 °F 42.8 °F 100% 30.27 in 4.0 mi North 17.3 mph - N/A Rain Light Rain
2:55 AM 43.3 °F 35.8 °F 42.1 °F 95% 30.26 in 3.0 mi North 16.1 mph - 0.00 in Rain Light Rain
3:17 AM 42.8 °F 35.8 °F 41.0 °F 93% 30.25 in 3.0 mi North 13.8 mph - N/A   Overcast
3:36 AM 42.8 °F 37.0 °F 42.8 °F 100% 30.24 in 4.0 mi NNE 10.4 mph - N/A   Overcast
3:40 AM 42.8 °F 35.8 °F 42.8 °F 100% 30.23 in 5.0 mi NNE 13.8 mph - N/A   Overcast
3:55 AM 43.5 °F 37.1 °F 42.4 °F 96% 30.23 in 4.0 mi NNE 12.7 mph - 0.00 in   Overcast
4:11 AM 44.6 °F 38.4 °F 42.8 °F 93% 30.24 in 4.0 mi NNE 12.7 mph - N/A   Overcast
4:16 AM 44.6 °F 38.8 °F 42.8 °F 93% 30.24 in 5.0 mi NNE 11.5 mph - N/A   Overcast
4:21 AM 44.6 °F 38.4 °F 42.8 °F 93% 30.24 in 7.0 mi NNE 12.7 mph - N/A   Overcast
4:55 AM 44.2 °F 37.6 °F 43.2 °F 96% 30.22 in 7.0 mi NE 13.8 mph - N/A   Overcast
4:59 AM 44.6 °F 38.8 °F 42.8 °F 93% 30.22 in 4.0 mi NE 11.5 mph - N/A   Overcast
5:11 AM 44.6 °F 38.1 °F 42.8 °F 93% 30.22 in 3.0 mi ENE 13.8 mph - N/A   Overcast
5:47 AM 44.6 °F 40.2 °F 44.6 °F 100% 30.22 in 3.0 mi ENE 8.1 mph - N/A   Overcast
5:55 AM 45.1 °F 40.8 °F 44.4 °F 97% 30.22 in 3.0 mi ENE 8.1 mph - 0.00 in   Overcast
6:00 AM 44.6 °F 39.7 °F 44.6 °F 100% 30.22 in 2.0 mi ENE 9.2 mph - N/A   Overcast
6:05 AM 44.6 °F 39.2 °F 44.6 °F 100% 30.22 in 2.5 mi ENE 10.4 mph - N/A   Overcast
6:13 AM 46.4 °F 41.5 °F 44.6 °F 93% 30.23 in 3.0 mi ENE 10.4 mph - N/A   Overcast
6:16 AM 46.4 °F 41.9 °F 44.6 °F 93% 30.23 in 3.0 mi ENE 9.2 mph - N/A   Overcast
6:25 AM 46.4 °F 41.9 °F 44.6 °F 93% 30.22 in 3.0 mi ENE 9.2 mph - N/A   Overcast
6:31 AM 46.4 °F 41.9 °F 44.6 °F 93% 30.22 in 3.0 mi ENE 9.2 mph - N/A   Overcast
6:40 AM 46.4 °F 42.4 °F 44.6 °F 93% 30.22 in 2.5 mi East 8.1 mph - N/A   Overcast
6:45 AM 46.4 °F 42.4 °F 44.6 °F 93% 30.22 in 3.0 mi East 8.1 mph - N/A   Overcast
6:48 AM 46.4 °F 41.5 °F 44.6 °F 93% 30.22 in 3.0 mi East 10.4 mph - N/A Rain Light Rain
6:55 AM 45.7 °F 41.0 °F 44.8 °F 97% 30.22 in 3.0 mi East 9.2 mph - 0.00 in Rain Light Rain
6:56 AM 46.4 °F 42.9 °F 44.6 °F 93% 30.22 in 2.0 mi East 6.9 mph - N/A Rain Light Rain
6:59 AM 46.4 °F 43.5 °F 44.6 °F 93% 30.22 in 1.8 mi East 5.8 mph - N/A Rain Light Rain
7:02 AM 46.4 °F 42.4 °F 44.6 °F 93% 30.21 in 1.8 mi East 8.1 mph - N/A Rain Light Rain
7:08 AM 46.4 °F 42.4 °F 44.6 °F 93% 30.22 in 1.8 mi East 8.1 mph - N/A Rain Light Rain
7:10 AM 46.4 °F 42.4 °F 44.6 °F 93% 30.22 in 1.5 mi East 8.1 mph - N/A Rain Light Rain
7:20 AM 46.4 °F 41.5 °F 44.6 °F 93% 30.21 in 1.2 mi East 10.4 mph - N/A Rain Light Rain
7:21 AM 46.4 °F 41.5 °F 44.6 °F 93% 30.21 in 1.2 mi East 10.4 mph - N/A Rain Light Rain
7:26 AM 46.4 °F 42.4 °F 44.6 °F 93% 30.22 in 1.2 mi East 8.1 mph - N/A Rain Light Rain
7:27 AM 46.4 °F 41.9 °F 44.6 °F 93% 30.22 in 1.0 mi East 9.2 mph - N/A Rain Light Rain
7:29 AM 46.4 °F 41.9 °F 44.6 °F 93% 30.22 in 1.0 mi East 9.2 mph - N/A Rain Light Rain
7:35 AM 46.4 °F 41.1 °F 44.6 °F 93% 30.22 in 1.2 mi East 11.5 mph - N/A Rain Light Rain
7:36 AM 46.4 °F 41.9 °F 46.4 °F 100% 30.22 in 1.2 mi East 9.2 mph - N/A Rain Light Rain
7:40 AM 46.4 °F 42.4 °F 46.4 °F 100% 30.23 in 2.0 mi ENE 8.1 mph - N/A Rain Light Rain
7:41 AM 46.4 °F 42.4 °F 46.4 °F 100% 30.23 in 2.0 mi ENE 8.1 mph - N/A Rain Light Rain
7:44 AM 46.4 °F 42.9 °F 46.4 °F 100% 30.23 in 3.0 mi ENE 6.9 mph - N/A Rain Light Rain
7:55 AM 46.6 °F - 45.9 °F 97% 30.24 in 4.0 mi NE 9.2 mph - 0.03 in Rain Light Rain
8:09 AM 46.4 °F 41.9 °F 46.4 °F 100% 30.25 in 1.8 mi NNE 9.2 mph - N/A Rain Light Rain
8:20 AM 46.4 °F 41.5 °F 46.4 °F 100% 30.25 in 2.0 mi NNE 10.4 mph - N/A Rain Light Rain
8:23 AM 46.4 °F 41.5 °F 46.4 °F 100% 30.25 in 1.8 mi NE 10.4 mph - N/A Rain Light Rain
8:26 AM 46.4 °F 41.9 °F 46.4 °F 100% 30.25 in 2.0 mi NE 9.2 mph - N/A Rain Light Rain
8:28 AM 46.4 °F 41.5 °F 46.4 °F 100% 30.25 in 2.0 mi NE 10.4 mph - N/A Rain Light Rain
8:33 AM 46.4 °F 41.9 °F 46.4 °F 100% 30.25 in 2.0 mi NNE 9.2 mph - N/A Rain Light Rain
8:35 AM 46.4 °F 42.4 °F 46.4 °F 100% 30.25 in 1.8 mi NNE 8.1 mph - N/A Rain Light Rain
8:43 AM 46.4 °F 41.9 °F 46.4 °F 100% 30.24 in 2.0 mi NNE 9.2 mph - N/A Rain Light Rain
8:55 AM 46.8 °F - 46.2 °F 98% 30.25 in 2.0 mi NNE 8.1 mph - 0.01 in Rain Light Rain
8:59 AM 46.4 °F 41.9 °F 46.4 °F 100% 30.25 in 3.0 mi North 9.2 mph - N/A Rain Light Rain
9:13 AM 46.4 °F 41.5 °F 46.4 °F 100% 30.26 in 5.0 mi North 10.4 mph - N/A   Overcast
9:18 AM 46.4 °F 41.1 °F 46.4 °F 100% 30.27 in 5.0 mi North 11.5 mph - N/A Rain Light Rain
9:55 AM 45.3 °F 38.7 °F 44.6 °F 97% 30.27 in 4.0 mi North 15.0 mph - 0.03 in Rain Light Rain
10:03 AM 44.6 °F 38.4 °F 44.6 °F 100% 30.28 in 2.5 mi North 12.7 mph - N/A Rain Light Rain
10:05 AM 44.6 °F 38.8 °F 44.6 °F 100% 30.28 in 2.5 mi North 11.5 mph - N/A Rain Light Rain
10:11 AM 44.6 °F 38.4 °F 44.6 °F 100% 30.27 in 2.0 mi North 12.7 mph - N/A Rain Rain
10:14 AM 44.6 °F 38.1 °F 44.6 °F 100% 30.27 in 1.8 mi NNE 13.8 mph - N/A Rain Light Rain
10:15 AM 44.6 °F 37.8 °F 44.6 °F 100% 30.27 in 1.5 mi NNE 15.0 mph - N/A Rain Light Rain
10:21 AM 44.6 °F 37.4 °F 42.8 °F 93% 30.28 in 1.2 mi North 16.1 mph - N/A Rain Rain
10:29 AM 44.6 °F 37.8 °F 42.8 °F 93% 30.28 in 1.5 mi North 15.0 mph - N/A Rain Rain
10:34 AM 44.6 °F 38.4 °F 42.8 °F 93% 30.28 in 1.8 mi North 12.7 mph - N/A Rain Rain
10:37 AM 44.6 °F 38.1 °F 42.8 °F 93% 30.29 in 2.0 mi North 13.8 mph - N/A Rain Heavy Rain
10:40 AM 44.6 °F 37.8 °F 42.8 °F 93% 30.28 in 1.8 mi North 15.0 mph - N/A Rain Heavy Rain
10:46 AM 44.6 °F 38.8 °F 42.8 °F 93% 30.28 in 1.2 mi North 11.5 mph - N/A Rain Rain
10:55 AM 43.9 °F 37.9 °F 43.2 °F 97% 30.27 in 1.2 mi NNE 11.5 mph - 0.13 in Rain Light Rain
10:58 AM 44.6 °F 38.1 °F 42.8 °F 93% 30.28 in 3.0 mi North 13.8 mph - N/A   Overcast
11:10 AM 44.6 °F 38.4 °F 42.8 °F 93% 30.28 in 1.2 mi North 12.7 mph - N/A Rain Heavy Rain
11:13 AM 42.8 °F 36.2 °F 42.8 °F 100% 30.27 in 1.0 mi North 12.7 mph - N/A Rain Heavy Rain
11:14 AM 42.8 °F 36.2 °F 42.8 °F 100% 30.27 in 1.0 mi North 12.7 mph - N/A Rain Heavy Rain
11:18 AM 42.8 °F 36.6 °F 42.8 °F 100% 30.28 in 0.8 mi North 11.5 mph - N/A Rain Heavy Rain
11:19 AM 42.8 °F 36.6 °F 42.8 °F 100% 30.28 in 0.8 mi North 11.5 mph - N/A Rain Heavy Rain
11:23 AM 42.8 °F 35.8 °F 42.8 °F 100% 30.29 in 0.8 mi North 13.8 mph - N/A Rain Heavy Rain
11:24 AM 44.6 °F 38.1 °F 42.8 °F 93% 30.29 in 1.0 mi North 13.8 mph - N/A Rain Heavy Rain
11:27 AM 44.6 °F 38.8 °F 42.8 °F 93% 30.29 in 1.2 mi North 11.5 mph - N/A Rain Heavy Rain
11:36 AM 42.8 °F 36.6 °F 42.8 °F 100% 30.28 in 1.0 mi North 11.5 mph - N/A Rain Heavy Rain
11:41 AM 42.8 °F 37.0 °F 42.8 °F 100% 30.27 in 1.2 mi North 10.4 mph - N/A Rain Rain
11:44 AM 42.8 °F 37.0 °F 42.8 °F 100% 30.27 in 1.5 mi NNE 10.4 mph - N/A Rain Rain
11:55 AM 43.7 °F 36.9 °F 42.8 °F 97% 30.27 in 1.5 mi NNE 13.8 mph - 0.22 in Rain Rain
12:04 PM 44.6 °F 38.1 °F 42.8 °F 93% 30.27 in 2.5 mi NNE 13.8 mph - N/A Rain Light Rain
12:07 PM 44.6 °F 38.1 °F 42.8 °F 93% 30.27 in 3.0 mi NNE 13.8 mph - N/A Rain Light Rain
12:16 PM 44.6 °F 38.1 °F 42.8 °F 93% 30.27 in 5.0 mi North 13.8 mph - N/A Rain Light Rain
12:40 PM 42.8 °F 36.2 °F 42.8 °F 100% 30.26 in 3.0 mi NNE 12.7 mph - N/A Rain Light Rain
12:55 PM 43.5 °F 36.7 °F 42.8 °F 97% 30.26 in 4.0 mi NNE 13.8 mph - 0.02 in Rain Light Rain
1:00 PM 42.8 °F 35.1 °F 42.8 °F 100% 30.26 in 2.5 mi NNE 16.1 mph - N/A Rain Light Rain
1:04 PM 42.8 °F 35.4 °F 42.8 °F 100% 30.26 in 2.0 mi NNE 15.0 mph - N/A Rain Light Rain
1:25 PM 42.8 °F 35.8 °F 42.8 °F 100% 30.25 in 2.5 mi NNE 13.8 mph - N/A Rain Light Rain
1:29 PM 42.8 °F 35.8 °F 42.8 °F 100% 30.25 in 3.0 mi NNE 13.8 mph - N/A Rain Light Rain
1:55 PM 43.9 °F 36.8 °F 43.0 °F 97% 30.23 in 3.0 mi NNE 15.0 mph - 0.03 in Rain Light Rain
2:10 PM 44.6 °F 38.1 °F 42.8 °F 93% 30.24 in 6.0 mi NNE 13.8 mph - N/A   Overcast
2:17 PM 44.6 °F 38.4 °F 42.8 °F 93% 30.24 in 8.0 mi NNE 12.7 mph - N/A Rain Light Rain
2:55 PM 44.1 °F 38.1 °F 43.3 °F 97% 30.22 in 6.0 mi NNE 11.5 mph - 0.01 in   Overcast
3:55 PM 43.9 °F 37.5 °F 43.2 °F 97% 30.23 in 10.0 mi NNE 12.7 mph - N/A   Overcast
4:46 PM 44.6 °F 39.2 °F 42.8 °F 93% 30.23 in 10.0 mi NE 10.4 mph - N/A   Overcast
4:55 PM 44.4 °F 39.0 °F 43.3 °F 96% 30.22 in 10.0 mi NE 10.4 mph - N/A   Overcast
5:06 PM 44.6 °F 38.4 °F 42.8 °F 93% 30.22 in 10.0 mi NE 12.7 mph - N/A   Overcast
5:36 PM 44.6 °F 38.4 °F 42.8 °F 93% 30.23 in 10.0 mi ENE 12.7 mph - N/A   Overcast
5:42 PM 44.6 °F 38.8 °F 42.8 °F 93% 30.24 in 10.0 mi NE 11.5 mph - N/A   Overcast
5:55 PM 44.4 °F 39.0 °F 43.3 °F 96% 30.24 in 10.0 mi NE 10.4 mph - N/A   Overcast
5:59 PM 44.6 °F 38.4 °F 42.8 °F 93% 30.23 in 10.0 mi NE 12.7 mph - N/A   Overcast
6:55 PM 44.2 °F 38.4 °F 43.2 °F 96% 30.24 in 10.0 mi NE 11.5 mph - N/A   Overcast
7:10 PM 44.6 °F 38.4 °F 42.8 °F 93% 30.23 in 8.0 mi NE 12.7 mph - N/A   Overcast
7:17 PM 44.6 °F 38.8 °F 42.8 °F 93% 30.23 in 5.0 mi NE 11.5 mph - N/A   Overcast
7:20 PM 44.6 °F 38.4 °F 42.8 °F 93% 30.22 in 5.0 mi NE 12.7 mph - N/A   Overcast
7:38 PM 44.6 °F 38.8 °F 42.8 °F 93% 30.22 in 4.0 mi NE 11.5 mph - N/A   Overcast
7:55 PM 43.9 °F 37.9 °F 42.8 °F 96% 30.21 in 4.0 mi NE 11.5 mph - N/A   Overcast
7:57 PM 44.6 °F 38.8 °F 42.8 °F 93% 30.21 in 2.5 mi NE 11.5 mph - N/A   Overcast
8:00 PM 44.6 °F 38.8 °F 42.8 °F 93% 30.21 in 2.5 mi NE 11.5 mph - N/A   Overcast
8:02 PM 44.6 °F 39.7 °F 42.8 °F 93% 30.21 in 2.0 mi NE 9.2 mph - N/A   Overcast
8:14 PM 44.6 °F 39.7 °F 42.8 °F 93% 30.20 in 1.8 mi NE 9.2 mph - N/A   Overcast
8:20 PM 44.6 °F 39.2 °F 42.8 °F 93% 30.20 in 1.5 mi NE 10.4 mph - N/A   Overcast
8:26 PM 44.6 °F 40.2 °F 42.8 °F 93% 30.20 in 1.2 mi NNE 8.1 mph - N/A   Overcast
8:32 PM 44.6 °F 40.2 °F 42.8 °F 93% 30.20 in 1.0 mi NE 8.1 mph - N/A   Mist
8:35 PM 44.6 °F 40.7 °F 42.8 °F 93% 30.19 in 1.0 mi NE 6.9 mph - N/A   Mist
8:36 PM 44.6 °F 40.2 °F 42.8 °F 93% 30.19 in 1.0 mi NE 8.1 mph - N/A   Mist
8:55 PM 44.1 °F 39.5 °F 43.3 °F 97% 30.20 in 1.0 mi NE 8.1 mph - N/A   Mist
9:14 PM 44.6 °F 40.2 °F 42.8 °F 93% 30.19 in 1.0 mi NE 8.1 mph - N/A   Mist
9:26 PM 44.6 °F 39.7 °F 42.8 °F 93% 30.18 in 1.0 mi NNE 9.2 mph - N/A   Mist
9:31 PM 44.6 °F 40.2 °F 42.8 °F 93% 30.17 in 1.0 mi NE 8.1 mph - N/A   Mist
9:45 PM 44.6 °F 39.2 °F 44.6 °F 100% 30.17 in 1.0 mi NNE 10.4 mph - N/A   Mist
9:47 PM 44.6 °F 39.2 °F 42.8 °F 93% 30.17 in 1.2 mi NNE 10.4 mph - N/A   Overcast
9:55 PM 44.1 °F 39.0 °F 43.7 °F 99% 30.17 in 1.2 mi NNE 9.2 mph - N/A   Overcast
10:04 PM 44.6 °F 39.2 °F 42.8 °F 93% 30.17 in 1.5 mi NNE 10.4 mph - N/A   Overcast
10:13 PM 44.6 °F 39.7 °F 42.8 °F 93% 30.17 in 1.2 mi NNE 9.2 mph - N/A   Overcast
10:30 PM 44.6 °F 40.2 °F 42.8 °F 93% 30.16 in 1.2 mi NNE 8.1 mph - N/A   Overcast
10:55 PM 43.7 °F 38.1 °F 43.2 °F 98% 30.14 in 1.2 mi NNE 10.4 mph - N/A   Overcast
11:07 PM 44.6 °F 38.8 °F 42.8 °F 93% 30.14 in 1.5 mi NNE 11.5 mph - N/A   Overcast
11:44 PM 44.6 °F 39.7 °F 42.8 °F 93% 30.12 in 1.2 mi NNE 9.2 mph - N/A   Overcast
11:55 PM 43.7 °F 37.7 °F 43.5 °F 99% 30.11 in 1.2 mi NNE 11.5 mph - N/A   Overcast